contact:dominique.lefevre@mio.osupytheas.fr, maurice.libes@osupytheas.fr, didier.mallarino@osupytheas.fr
Project:EMSO http://www.emso-fr.org/EMSO-France
Depth: 2436.0 m
Title:EMSO Ligure Ouest : Data MII capteur AQUADOPP
Date,Latitude,Longitude,X_East,Y_North,Z_Up,Amplitude_X,Amplitude_Y,Amplitude_Z,Batterie,SoundSpeed,Heading,Pitch,Roll,Pressure,TIS,Speed,Direction
, degrees North, degrees East, m.s-1, m.s-1,m.s-1, 1, 1, 1, Volt, m.s-1, degree, degree, degree, dbar, degree_C, m.s-1, degree
2020-12-02T00:04:03,42.805,6.029,0.044,0.0,0.012,103.0,115.0,101.0,13.3,1505.2,325.8,-0.7,1.8,2470.478,13.3,0.044,90.0
2020-12-02T00:07:03,42.805,6.029,0.036,-0.003,0.004,102.0,113.0,100.0,13.4,1505.3,327.8,-0.7,1.8,2470.459,13.31,0.036,94.8
2020-12-02T00:10:03,42.805,6.029,0.026,-0.01,-0.029,102.0,117.0,99.0,13.4,1505.3,323.8,-0.7,1.9,2470.484,13.31,0.027,111.0
2020-12-02T00:13:03,42.805,6.029,0.032,0.006,-0.04,102.0,119.0,101.0,13.4,1505.3,324.5,-0.7,1.8,2470.441,13.31,0.032,79.4
2020-12-02T00:16:03,42.805,6.029,0.062,0.011,-0.01,103.0,116.0,100.0,13.3,1505.3,327.9,-0.7,1.8,2470.419,13.32,0.062,79.9
2020-12-02T00:19:03,42.805,6.029,0.019,-0.004,-0.034,103.0,114.0,100.0,13.3,1505.3,323.0,-0.7,1.9,2470.416,13.32,0.019,101.9
2020-12-02T00:22:03,42.805,6.029,0.038,0.024,0.006,101.0,119.0,101.0,13.3,1505.3,326.2,-0.7,1.8,2470.466,13.32,0.044,57.7
2020-12-02T00:25:03,42.805,6.029,0.049,0.0,0.0,103.0,117.0,100.0,13.4,1505.3,324.8,-0.7,1.8,2470.412,13.32,0.049,90.0
2020-12-02T00:28:03,42.805,6.029,0.049,-0.014,-0.032,105.0,116.0,101.0,13.3,1505.3,327.3,-0.6,1.8,2470.408,13.32,0.05,105.9
2020-12-02T00:31:03,42.805,6.029,0.033,0.0,-0.017,103.0,118.0,102.0,13.4,1505.3,326.4,-0.7,1.8,2470.382,13.32,0.033,90.0
2020-12-02T00:34:03,42.805,6.029,0.057,-0.014,-0.03,103.0,115.0,100.0,13.4,1505.3,323.4,-0.8,1.8,2470.359,13.32,0.058,103.8
2020-12-02T00:37:03,42.805,6.029,0.036,-0.003,0.014,102.0,116.0,101.0,13.4,1505.3,324.0,-0.6,1.8,2470.407,13.32,0.036,94.8
2020-12-02T00:40:03,42.805,6.029,0.034,-0.01,-0.013,103.0,120.0,101.0,13.4,1505.3,322.7,-0.7,1.8,2470.432,13.32,0.035,106.4
2020-12-02T00:43:03,42.805,6.029,0.079,0.004,0.004,102.0,116.0,101.0,13.4,1505.3,324.5,-0.7,1.9,2470.382,13.32,0.079,87.1
2020-12-02T00:46:03,42.805,6.029,0.049,0.003,-0.005,102.0,117.0,100.0,13.4,1505.3,325.4,-0.7,1.8,2470.423,13.32,0.049,86.5
2020-12-02T00:49:03,42.805,6.029,0.019,0.01,-0.017,103.0,117.0,101.0,13.4,1505.3,327.6,-0.7,1.8,2470.374,13.32,0.021,62.2
2020-12-02T00:52:03,42.805,6.029,0.035,0.01,0.014,103.0,116.0,101.0,13.4,1505.3,325.5,-0.7,1.8,2470.417,13.32,0.036,74.1
2020-12-02T00:55:03,42.805,6.029,0.055,-0.015,0.0,103.0,117.0,100.0,13.4,1505.3,328.3,-0.7,1.8,2470.4,13.32,0.057,105.3
2020-12-02T00:58:03,42.805,6.029,0.058,0.007,0.005,102.0,115.0,101.0,13.4,1505.3,324.2,-0.7,1.8,2470.405,13.32,0.058,83.1
2020-12-02T01:04:03,42.805,6.029,0.022,0.026,0.01,105.0,119.0,102.0,13.4,1505.2,325.8,-0.7,1.8,2470.453,13.3,0.034,40.2
2020-12-02T01:07:03,42.805,6.029,0.034,0.018,0.0,102.0,120.0,100.0,13.4,1505.3,324.6,-0.7,1.8,2470.417,13.31,0.038,62.1
2020-12-02T01:10:03,42.805,6.029,0.048,-0.004,-0.006,103.0,118.0,100.0,13.4,1505.3,326.6,-0.7,1.8,2470.434,13.31,0.048,94.8
2020-12-02T01:13:03,42.805,6.029,0.041,0.0,0.011,102.0,117.0,101.0,13.3,1505.3,327.0,-0.7,1.8,2470.419,13.31,0.041,90.0
2020-12-02T01:16:03,42.805,6.029,0.048,0.015,0.038,103.0,116.0,101.0,13.4,1505.3,328.2,-0.7,1.9,2470.393,13.32,0.05,72.6
2020-12-02T01:19:03,42.805,6.029,0.043,-0.005,-0.001,102.0,114.0,100.0,13.4,1505.3,327.9,-0.7,1.8,2470.453,13.32,0.043,96.6
2020-12-02T01:22:02,42.805,6.029,0.046,0.0,0.01,103.0,118.0,101.0,13.4,1505.3,328.2,-0.7,1.8,2470.403,13.32,0.046,90.0
2020-12-02T01:25:03,42.805,6.029,0.047,0.009,-0.01,103.0,115.0,101.0,13.4,1505.3,328.1,-0.7,1.8,2470.387,13.32,0.047,79.2
2020-12-02T01:28:03,42.805,6.029,0.057,-0.018,-0.013,102.0,116.0,100.0,13.3,1505.3,327.6,-0.7,1.8,2470.424,13.32,0.059,107.5
2020-12-02T01:31:03,42.805,6.029,0.05,-0.014,-0.004,103.0,115.0,101.0,13.4,1505.3,326.6,-0.7,1.8,2470.389,13.32,0.051,105.6
2020-12-02T01:34:03,42.805,6.029,0.07,-0.003,0.027,103.0,114.0,100.0,13.4,1505.3,325.9,-0.7,1.8,2470.35,13.32,0.07,92.4
2020-12-02T01:37:03,42.805,6.029,0.041,0.006,-0.017,103.0,116.0,100.0,13.4,1505.3,325.1,-0.7,1.8,2470.412,13.32,0.041,81.7
2020-12-02T01:40:03,42.805,6.029,0.033,-0.001,-0.011,102.0,117.0,101.0,13.4,1505.3,327.1,-0.7,1.8,2470.355,13.32,0.033,91.7
2020-12-02T01:43:03,42.805,6.029,0.023,-0.01,-0.019,102.0,121.0,100.0,13.4,1505.3,326.0,-0.7,1.8,2470.38,13.32,0.025,113.5
2020-12-02T01:46:03,42.805,6.029,0.041,0.014,-0.043,102.0,117.0,99.0,13.4,1505.3,326.2,-0.7,1.8,2470.39,13.32,0.043,71.1
2020-12-02T01:49:03,42.805,6.029,0.051,0.014,-0.011,103.0,116.0,100.0,13.3,1505.3,325.3,-0.7,1.8,2470.334,13.32,0.052,74.7
2020-12-02T01:52:03,42.805,6.029,0.037,0.012,0.006,103.0,119.0,101.0,13.4,1505.3,327.1,-0.7,1.8,2470.387,13.32,0.038,72.0
2020-12-02T01:55:03,42.805,6.029,0.053,0.001,0.0,102.0,118.0,99.0,13.3,1505.3,326.9,-0.7,1.8,2470.385,13.32,0.053,88.9
2020-12-02T01:58:03,42.805,6.029,0.029,0.002,-0.03,103.0,119.0,101.0,13.4,1505.3,326.0,-0.7,1.8,2470.374,13.32,0.029,86.1
2020-12-02T02:04:03,42.805,6.029,0.053,0.007,-0.005,102.0,118.0,101.0,13.4,1505.2,325.6,-0.7,1.8,2470.403,13.3,0.053,82.5
2020-12-02T02:07:03,42.805,6.029,0.035,0.023,0.002,102.0,116.0,100.0,13.4,1505.3,325.7,-0.7,1.8,2470.418,13.31,0.041,56.7
2020-12-02T02:10:03,42.805,6.029,0.056,0.02,-0.022,103.0,117.0,101.0,13.4,1505.3,324.6,-0.7,1.8,2470.412,13.31,0.059,70.4
2020-12-02T02:13:03,42.805,6.029,0.059,-0.004,0.039,103.0,115.0,100.0,13.4,1505.3,327.7,-0.7,1.8,2470.397,13.31,0.059,93.9
2020-12-02T02:16:03,42.805,6.029,0.063,-0.003,-0.025,103.0,118.0,102.0,13.4,1505.3,325.5,-0.7,1.8,2470.413,13.32,0.063,92.7
2020-12-02T02:19:03,42.805,6.029,0.03,-0.01,-0.027,103.0,113.0,100.0,13.4,1505.3,327.5,-0.7,1.9,2470.418,13.32,0.031,108.4
2020-12-02T02:22:03,42.805,6.029,0.04,-0.009,-0.03,102.0,116.0,100.0,13.4,1505.3,324.2,-0.7,1.8,2470.394,13.32,0.041,102.7
2020-12-02T02:25:03,42.805,6.029,0.035,0.018,-0.012,104.0,121.0,100.0,13.4,1505.3,323.3,-0.7,1.8,2470.38,13.32,0.039,62.8
2020-12-02T02:28:03,42.805,6.029,0.057,-0.015,-0.019,102.0,115.0,100.0,13.3,1505.3,326.9,-0.7,1.8,2470.424,13.32,0.058,104.7
2020-12-02T02:31:03,42.805,6.029,0.018,0.018,-0.023,103.0,118.0,100.0,13.4,1505.3,326.3,-0.7,1.8,2470.397,13.32,0.025,45.0
2020-12-02T02:34:03,42.805,6.029,0.01,0.008,-0.035,102.0,119.0,100.0,13.3,1505.3,325.7,-0.7,1.8,2470.407,13.32,0.012,51.3
2020-12-02T02:37:03,42.805,6.029,0.049,-0.015,-0.014,102.0,117.0,100.0,13.4,1505.3,327.6,-0.7,1.8,2470.418,13.32,0.051,107.0
2020-12-02T02:40:03,42.805,6.029,0.064,0.027,0.001,103.0,116.0,101.0,13.4,1505.3,326.4,-0.7,1.8,2470.4,13.32,0.069,67.1
2020-12-02T02:43:03,42.805,6.029,0.048,-0.005,-0.01,102.0,115.0,102.0,13.4,1505.3,324.4,-0.7,1.8,2470.386,13.32,0.048,95.9
2020-12-02T02:46:03,42.805,6.029,0.018,0.01,-0.002,102.0,115.0,99.0,13.4,1505.3,327.2,-0.7,1.9,2470.379,13.32,0.02,60.9
2020-12-02T02:49:03,42.805,6.029,0.016,-0.017,-0.017,102.0,120.0,100.0,13.3,1505.3,327.6,-0.7,1.8,2470.391,13.32,0.023,136.7
2020-12-02T02:52:03,42.805,6.029,0.04,-0.015,-0.018,102.0,117.0,100.0,13.4,1505.3,322.8,-0.7,1.8,2470.355,13.32,0.042,110.6
2020-12-02T02:55:03,42.805,6.029,0.03,0.008,0.01,103.0,118.0,101.0,13.4,1505.3,326.0,-0.7,1.8,2470.408,13.32,0.031,75.1
2020-12-02T02:58:03,42.805,6.029,0.044,0.006,0.022,102.0,117.0,101.0,13.3,1505.3,324.3,-0.7,1.8,2470.365,13.32,0.044,82.2
2020-12-02T03:04:03,42.805,6.029,0.072,0.023,-0.005,102.0,119.0,101.0,13.4,1505.2,325.0,-0.8,1.8,2470.42,13.3,0.075,72.3
2020-12-02T03:07:03,42.805,6.029,0.028,0.01,-0.004,102.0,117.0,100.0,13.4,1505.3,327.3,-0.7,1.8,2470.438,13.31,0.029,70.4
2020-12-02T03:10:03,42.805,6.029,0.042,-0.007,-0.006,102.0,114.0,99.0,13.4,1505.3,323.7,-0.7,1.8,2470.394,13.31,0.042,99.5
2020-12-02T03:13:03,42.805,6.029,0.055,0.018,0.002,101.0,118.0,100.0,13.3,1505.3,326.1,-0.7,1.8,2470.433,13.31,0.057,71.9
2020-12-02T03:16:03,42.805,6.029,0.049,0.001,0.021,103.0,115.0,101.0,13.3,1505.3,327.9,-0.7,1.8,2470.406,13.32,0.049,88.8
2020-12-02T03:19:03,42.805,6.029,0.045,-0.001,0.001,103.0,117.0,99.0,13.3,1505.3,325.1,-0.7,1.8,2470.419,13.32,0.045,91.3
2020-12-02T03:22:03,42.805,6.029,0.051,-0.016,-0.038,104.0,116.0,101.0,13.4,1505.3,324.7,-0.7,1.8,2470.411,13.32,0.053,107.4
2020-12-02T03:25:03,42.805,6.029,0.053,0.003,0.0,103.0,113.0,100.0,13.4,1505.3,326.1,-0.7,1.8,2470.44,13.32,0.053,86.8
2020-12-02T03:28:03,42.805,6.029,0.047,-0.009,0.015,101.0,116.0,101.0,13.3,1505.3,326.7,-0.7,1.8,2470.429,13.32,0.047,100.8
2020-12-02T03:31:03,42.805,6.029,0.022,0.005,-0.005,102.0,120.0,101.0,13.4,1505.3,324.4,-0.7,1.8,2470.389,13.32,0.022,77.2
2020-12-02T03:34:03,42.805,6.029,0.062,0.006,0.005,102.0,114.0,101.0,13.4,1505.3,324.7,-0.7,1.8,2470.426,13.32,0.062,84.5
2020-12-02T03:37:03,42.805,6.029,0.047,0.016,-0.005,101.0,116.0,99.0,13.3,1505.3,327.0,-0.7,1.8,2470.435,13.32,0.049,71.2
2020-12-02T03:40:03,42.805,6.029,0.044,-0.001,0.034,103.0,118.0,100.0,13.4,1505.3,328.0,-0.7,1.8,2470.434,13.32,0.044,91.3
2020-12-02T03:43:03,42.805,6.029,0.06,-0.003,-0.002,102.0,115.0,100.0,13.3,1505.3,324.8,-0.7,1.8,2470.421,13.32,0.06,92.9
2020-12-02T03:46:03,42.805,6.029,0.047,0.002,-0.015,101.0,116.0,101.0,13.3,1505.3,326.0,-0.7,1.9,2470.394,13.32,0.047,87.6
2020-12-02T03:49:03,42.805,6.029,0.058,-0.012,0.0,101.0,115.0,101.0,13.4,1505.3,327.0,-0.7,1.8,2470.425,13.32,0.059,101.7
2020-12-02T03:52:03,42.805,6.029,0.027,-0.001,-0.024,102.0,119.0,100.0,13.4,1505.3,326.3,-0.7,1.8,2470.429,13.32,0.027,92.1
2020-12-02T03:55:03,42.805,6.029,0.044,0.011,-0.017,102.0,115.0,100.0,13.3,1505.3,327.6,-0.7,1.8,2470.436,13.32,0.045,76.0
2020-12-02T03:58:03,42.805,6.029,0.049,-0.001,-0.008,103.0,118.0,100.0,13.4,1505.3,323.7,-0.7,1.8,2470.44,13.32,0.049,91.2
2020-12-02T04:04:03,42.805,6.029,0.047,-0.018,-0.053,102.0,116.0,100.0,13.4,1505.2,325.6,-0.8,1.9,2470.469,13.3,0.05,111.0
2020-12-02T04:07:03,42.805,6.029,0.033,-0.005,-0.018,103.0,117.0,100.0,13.4,1505.3,328.2,-0.7,1.8,2470.457,13.31,0.033,98.6
2020-12-02T04:10:03,42.805,6.029,0.046,0.011,0.014,103.0,113.0,99.0,13.4,1505.3,326.2,-0.7,1.8,2470.473,13.31,0.047,76.6
2020-12-02T04:13:03,42.805,6.029,0.053,0.003,0.002,101.0,115.0,101.0,13.4,1505.3,325.9,-0.7,1.9,2470.455,13.31,0.053,86.8
2020-12-02T04:19:03,42.805,6.029,0.073,-0.005,-0.002,102.0,112.0,101.0,13.4,1505.2,327.4,-0.7,1.8,2470.481,13.3,0.073,93.9
2020-12-02T04:22:03,42.805,6.029,0.044,-0.007,0.019,102.0,115.0,100.0,13.3,1505.3,326.2,-0.7,1.8,2470.478,13.31,0.044,99.0
2020-12-02T04:25:03,42.805,6.029,0.078,-0.014,-0.002,103.0,115.0,101.0,13.4,1505.3,325.7,-0.7,1.8,2470.496,13.31,0.079,100.2
2020-12-02T04:28:03,42.805,6.029,0.049,-0.011,0.02,103.0,111.0,101.0,13.4,1505.3,326.7,-0.7,1.8,2470.511,13.31,0.05,102.7
2020-12-02T04:31:03,42.805,6.029,0.047,0.004,-0.026,102.0,115.0,101.0,13.4,1505.3,328.3,-0.7,1.8,2470.486,13.31,0.047,85.1
2020-12-02T04:34:03,42.805,6.029,0.057,-0.025,-0.004,102.0,113.0,102.0,13.4,1505.3,326.8,-0.7,1.8,2470.509,13.32,0.062,113.7
2020-12-02T04:37:03,42.805,6.029,0.062,-0.011,0.011,103.0,114.0,100.0,13.4,1505.3,325.9,-0.7,1.8,2470.471,13.32,0.062,100.1
2020-12-02T04:40:03,42.805,6.029,0.06,-0.006,-0.003,103.0,113.0,101.0,13.3,1505.3,323.4,-0.7,1.8,2470.506,13.32,0.06,95.7
2020-12-02T04:43:03,42.805,6.029,0.036,-0.01,-0.035,103.0,117.0,100.0,13.4,1505.3,326.2,-0.7,1.8,2470.462,13.32,0.037,105.5
2020-12-02T04:46:03,42.805,6.029,0.055,-0.001,0.006,102.0,114.0,101.0,13.3,1505.3,327.6,-0.7,1.8,2470.471,13.32,0.055,91.0
2020-12-02T04:49:03,42.805,6.029,0.053,0.007,0.004,102.0,114.0,101.0,13.4,1505.3,325.0,-0.7,1.9,2470.474,13.32,0.053,82.5
2020-12-02T04:52:03,42.805,6.029,0.043,-0.01,0.024,102.0,114.0,101.0,13.3,1505.3,327.7,-0.7,1.8,2470.476,13.32,0.044,103.1
2020-12-02T04:55:03,42.805,6.029,0.067,0.001,0.019,103.0,116.0,100.0,13.4,1505.3,326.4,-0.7,1.8,2470.502,13.32,0.067,89.1
2020-12-02T04:58:03,42.805,6.029,0.047,-0.006,-0.002,102.0,115.0,101.0,13.4,1505.3,327.3,-0.7,1.8,2470.481,13.32,0.047,97.3
2020-12-02T05:04:03,42.805,6.029,0.07,0.02,0.008,102.0,114.0,101.0,13.4,1505.2,322.8,-0.7,1.8,2470.515,13.3,0.072,74.1
2020-12-02T05:07:03,42.805,6.029,0.059,-0.005,-0.009,104.0,116.0,100.0,13.3,1505.3,324.4,-0.7,1.8,2470.523,13.31,0.059,94.8
2020-12-02T05:10:03,42.805,6.029,0.042,-0.024,0.006,102.0,114.0,101.0,13.3,1505.3,325.1,-0.7,1.8,2470.563,13.31,0.048,119.7
2020-12-02T05:13:03,42.805,6.029,0.037,-0.001,0.004,103.0,114.0,101.0,13.4,1505.3,326.1,-0.7,1.8,2470.516,13.31,0.037,91.5
2020-12-02T05:16:03,42.805,6.029,0.064,-0.018,-0.025,102.0,116.0,100.0,13.4,1505.3,327.3,-0.7,1.8,2470.547,13.32,0.066,105.7
2020-12-02T05:19:03,42.805,6.029,0.056,-0.016,0.008,103.0,115.0,101.0,13.3,1505.3,328.3,-0.7,1.8,2470.492,13.32,0.058,105.9
2020-12-02T05:22:03,42.805,6.029,0.062,-0.018,0.014,102.0,114.0,100.0,13.3,1505.3,324.0,-0.7,1.8,2470.504,13.32,0.064,106.2
2020-12-02T05:25:03,42.805,6.029,0.047,-0.005,0.001,104.0,112.0,101.0,13.4,1505.3,325.3,-0.7,1.8,2470.526,13.32,0.047,96.1
2020-12-02T05:28:03,42.805,6.029,0.044,0.008,-0.03,103.0,114.0,101.0,13.4,1505.3,324.5,-0.7,1.8,2470.528,13.32,0.044,79.7
2020-12-02T05:31:03,42.805,6.029,0.033,0.022,-0.014,103.0,114.0,101.0,13.3,1505.3,327.8,-0.7,1.8,2470.499,13.32,0.039,56.3
2020-12-02T05:34:03,42.805,6.029,0.077,-0.012,0.007,103.0,113.0,101.0,13.4,1505.3,325.9,-0.7,1.8,2470.518,13.32,0.077,98.9
2020-12-02T05:37:03,42.805,6.029,0.031,0.003,-0.02,103.0,116.0,101.0,13.4,1505.3,323.9,-0.7,1.8,2470.488,13.32,0.031,84.5
2020-12-02T05:40:03,42.805,6.029,0.046,0.0,-0.005,103.0,115.0,101.0,13.4,1505.3,325.9,-0.7,1.8,2470.511,13.32,0.046,90.0
2020-12-02T05:43:03,42.805,6.029,0.041,0.023,0.001,103.0,116.0,100.0,13.4,1505.3,324.2,-0.7,1.8,2470.52,13.32,0.047,60.7
2020-12-02T05:46:03,42.805,6.029,0.032,0.0,0.015,103.0,115.0,101.0,13.3,1505.3,328.2,-0.7,1.8,2470.495,13.32,0.032,90.0
2020-12-02T05:49:03,42.805,6.029,0.068,-0.024,-0.001,103.0,114.0,101.0,13.4,1505.3,327.1,-0.7,1.8,2470.526,13.32,0.072,109.4
2020-12-02T05:52:03,42.805,6.029,0.032,-0.007,-0.004,102.0,115.0,102.0,13.3,1505.3,326.4,-0.7,1.8,2470.497,13.32,0.032,102.3
2020-12-02T05:55:03,42.805,6.029,0.048,0.004,0.022,103.0,116.0,101.0,13.4,1505.3,324.4,-0.7,1.8,2470.51,13.32,0.048,85.2
2020-12-02T05:58:03,42.805,6.029,0.069,0.0,0.015,103.0,114.0,102.0,13.4,1505.3,325.9,-0.7,1.8,2470.507,13.32,0.068,90.0
2020-12-02T06:04:03,42.805,6.029,0.05,-0.017,-0.037,103.0,116.0,101.0,13.3,1505.2,326.2,-0.7,1.9,2470.584,13.3,0.052,108.8
2020-12-02T06:07:03,42.805,6.029,0.049,-0.014,0.03,104.0,115.0,101.0,13.4,1505.3,326.9,-0.7,1.8,2470.579,13.31,0.05,105.9
2020-12-02T06:10:03,42.805,6.029,0.041,0.019,0.007,104.0,114.0,101.0,13.3,1505.3,326.3,-0.7,1.8,2470.561,13.31,0.045,65.1
2020-12-02T06:13:03,42.805,6.029,0.049,0.0,-0.008,104.0,115.0,100.0,13.4,1505.3,328.0,-0.7,1.8,2470.581,13.31,0.049,90.0
2020-12-02T06:16:03,42.805,6.029,0.058,-0.01,0.004,103.0,116.0,101.0,13.4,1505.3,323.4,-0.7,1.8,2470.589,13.32,0.058,99.8
2020-12-02T06:19:03,42.805,6.029,0.044,-0.005,-0.011,102.0,117.0,101.0,13.4,1505.3,327.0,-0.7,1.8,2470.605,13.32,0.044,96.5
2020-12-02T06:22:03,42.805,6.029,0.069,-0.008,-0.02,104.0,115.0,101.0,13.4,1505.3,325.7,-0.7,1.8,2470.567,13.32,0.069,96.6
2020-12-02T06:25:03,42.805,6.029,0.055,-0.005,0.009,104.0,115.0,102.0,13.3,1505.3,325.4,-0.7,1.9,2470.595,13.32,0.055,95.2
2020-12-02T06:31:03,42.805,6.029,0.056,-0.003,-0.016,103.0,118.0,101.0,13.4,1505.2,326.5,-0.7,1.8,2470.62,13.3,0.056,93.1
2020-12-02T06:34:03,42.805,6.029,0.071,-0.024,-0.022,103.0,115.0,100.0,13.3,1505.3,325.4,-0.7,1.9,2470.612,13.31,0.074,108.7
2020-12-02T06:37:03,42.805,6.029,0.032,0.009,-0.02,103.0,114.0,101.0,13.4,1505.3,324.2,-0.7,1.8,2470.627,13.31,0.033,74.3
2020-12-02T06:40:03,42.805,6.029,0.051,-0.01,0.017,103.0,115.0,101.0,13.4,1505.3,324.9,-0.7,1.8,2470.642,13.31,0.051,101.1
2020-12-02T06:43:03,42.805,6.029,0.059,-0.018,0.006,104.0,116.0,101.0,13.4,1505.3,327.9,-0.7,1.8,2470.605,13.32,0.061,107.0
2020-12-02T06:46:03,42.805,6.029,0.044,-0.007,0.002,104.0,116.0,101.0,13.3,1505.3,324.9,-0.7,1.8,2470.599,13.32,0.044,99.0
2020-12-02T06:49:03,42.805,6.029,0.044,-0.006,-0.015,104.0,115.0,101.0,13.4,1505.3,326.3,-0.7,1.8,2470.572,13.32,0.044,97.8
2020-12-02T06:52:03,42.805,6.029,0.041,0.0,-0.007,104.0,115.0,101.0,13.4,1505.3,324.8,-0.7,1.8,2470.589,13.32,0.041,90.0
2020-12-02T06:55:03,42.805,6.029,0.041,-0.011,-0.014,103.0,116.0,100.0,13.3,1505.3,327.6,-0.7,1.8,2470.615,13.32,0.042,105.0
2020-12-02T06:58:03,42.805,6.029,0.059,0.01,-0.02,103.0,112.0,101.0,13.4,1505.3,324.7,-0.7,1.9,2470.613,13.32,0.059,80.4
2020-12-02T07:04:03,42.805,6.029,0.032,-0.012,0.0,102.0,119.0,101.0,13.4,1505.2,326.6,-0.7,1.8,2470.666,13.3,0.034,110.6
2020-12-02T07:07:03,42.805,6.029,0.05,-0.006,-0.017,103.0,115.0,101.0,13.4,1505.3,326.3,-0.7,1.8,2470.652,13.31,0.05,96.8
2020-12-02T07:10:03,42.805,6.029,0.042,0.008,-0.032,103.0,117.0,100.0,13.3,1505.3,326.4,-0.7,1.8,2470.689,13.31,0.042,79.2
2020-12-02T07:13:03,42.805,6.029,0.039,0.006,-0.005,102.0,116.0,101.0,13.4,1505.3,326.3,-0.7,1.8,2470.642,13.31,0.039,81.3
2020-12-02T07:16:03,42.805,6.029,0.043,0.0,0.008,104.0,120.0,101.0,13.4,1505.3,326.0,-0.7,1.8,2470.638,13.32,0.043,90.0
2020-12-02T07:19:03,42.805,6.029,0.056,-0.006,0.003,102.0,115.0,101.0,13.4,1505.3,324.2,-0.7,1.8,2470.619,13.32,0.056,96.1
2020-12-02T07:22:03,42.805,6.029,0.045,0.002,-0.036,103.0,116.0,101.0,13.4,1505.3,324.5,-0.7,1.8,2470.594,13.32,0.045,87.5
2020-12-02T07:25:03,42.805,6.029,0.074,0.003,0.021,103.0,116.0,100.0,13.4,1505.3,324.0,-0.7,1.8,2470.641,13.32,0.074,87.7
2020-12-02T07:28:03,42.805,6.029,0.06,0.013,0.034,103.0,118.0,101.0,13.4,1505.3,328.0,-0.8,1.8,2470.628,13.32,0.061,77.8
2020-12-02T07:31:03,42.805,6.029,0.038,-0.006,-0.019,104.0,118.0,100.0,13.4,1505.3,326.5,-0.7,1.8,2470.592,13.32,0.038,99.0
2020-12-02T07:34:03,42.805,6.029,0.039,-0.002,-0.001,103.0,120.0,101.0,13.4,1505.3,323.8,-0.7,1.8,2470.611,13.32,0.039,92.9
2020-12-02T07:37:03,42.805,6.029,0.063,0.016,0.002,104.0,117.0,102.0,13.3,1505.3,326.3,-0.7,1.8,2470.607,13.32,0.064,75.8
2020-12-02T07:40:03,42.805,6.029,0.031,-0.007,-0.022,104.0,115.0,101.0,13.4,1505.3,324.6,-0.7,1.9,2470.609,13.32,0.031,102.7
2020-12-02T07:43:03,42.805,6.029,0.056,-0.011,-0.01,103.0,118.0,102.0,13.3,1505.3,324.7,-0.7,1.9,2470.623,13.32,0.057,101.1
2020-12-02T07:46:03,42.805,6.029,0.024,-0.015,-0.014,103.0,119.0,101.0,13.4,1505.3,324.6,-0.7,1.8,2470.644,13.32,0.028,122.0
2020-12-02T07:49:03,42.805,6.029,0.044,0.02,-0.021,104.0,120.0,101.0,13.4,1505.3,326.0,-0.7,1.8,2470.597,13.32,0.048,65.6
2020-12-02T07:52:03,42.805,6.029,0.022,0.015,-0.032,103.0,119.0,101.0,13.4,1505.3,327.8,-0.7,1.8,2470.641,13.32,0.026,55.7
2020-12-02T07:55:03,42.805,6.029,0.022,0.018,-0.009,103.0,119.0,101.0,13.4,1505.3,324.4,-0.7,1.8,2470.615,13.32,0.028,50.7
2020-12-02T07:58:03,42.805,6.029,0.026,-0.006,0.003,103.0,119.0,101.0,13.4,1505.3,325.2,-0.7,1.8,2470.612,13.32,0.026,103.0
2020-12-02T08:04:03,42.805,6.029,0.035,-0.007,-0.027,104.0,124.0,101.0,13.4,1505.2,322.9,-0.7,1.8,2470.646,13.3,0.035,101.3
2020-12-02T08:07:03,42.805,6.029,0.042,0.004,-0.001,104.0,121.0,101.0,13.4,1505.3,326.8,-0.7,1.8,2470.637,13.31,0.042,84.6
2020-12-02T08:10:03,42.805,6.029,0.037,0.009,-0.038,104.0,120.0,100.0,13.4,1505.3,325.0,-0.7,1.8,2470.639,13.31,0.038,76.3
2020-12-02T08:13:03,42.805,6.029,0.044,-0.003,-0.004,102.0,121.0,100.0,13.3,1505.3,328.2,-0.7,1.8,2470.653,13.31,0.044,93.9
2020-12-02T08:16:03,42.805,6.029,0.016,0.006,-0.002,103.0,124.0,101.0,13.4,1505.3,326.5,-0.7,1.8,2470.638,13.32,0.017,69.4
2020-12-02T08:19:03,42.805,6.029,0.043,0.002,-0.009,103.0,120.0,101.0,13.3,1505.3,328.1,-0.7,1.9,2470.622,13.32,0.043,87.3
2020-12-02T08:22:03,42.805,6.029,0.05,0.008,-0.022,104.0,120.0,101.0,13.4,1505.3,326.5,-0.7,1.8,2470.606,13.32,0.05,80.9
2020-12-02T08:25:03,42.805,6.029,0.061,0.012,0.018,103.0,120.0,100.0,13.3,1505.3,328.5,-0.7,1.9,2470.627,13.32,0.062,78.9
2020-12-02T08:28:03,42.805,6.029,0.034,0.028,-0.023,104.0,119.0,101.0,13.4,1505.3,325.1,-0.7,1.8,2470.665,13.32,0.044,50.5
2020-12-02T08:31:03,42.805,6.029,0.062,0.004,0.034,101.0,122.0,101.0,13.4,1505.3,325.5,-0.7,1.8,2470.68,13.32,0.062,86.3
2020-12-02T08:34:03,42.805,6.029,0.033,-0.005,-0.022,101.0,121.0,102.0,13.4,1505.3,324.5,-0.7,1.8,2470.6,13.32,0.033,98.6
2020-12-02T08:37:03,42.805,6.029,0.041,0.015,-0.008,104.0,118.0,101.0,13.4,1505.3,326.9,-0.7,1.8,2470.632,13.32,0.043,69.9
2020-12-02T08:40:03,42.805,6.029,0.032,0.018,0.002,103.0,122.0,100.0,13.3,1505.3,328.0,-0.7,1.8,2470.656,13.32,0.036,60.6
2020-12-02T08:43:03,42.805,6.029,0.047,0.02,0.002,104.0,121.0,102.0,13.3,1505.3,326.7,-0.7,1.8,2470.645,13.32,0.051,67.0
2020-12-02T08:46:03,42.805,6.029,0.045,0.005,0.003,103.0,120.0,101.0,13.4,1505.3,323.2,-0.7,1.8,2470.625,13.32,0.045,83.7
2020-12-02T08:49:03,42.805,6.029,0.029,-0.001,-0.041,103.0,122.0,101.0,13.4,1505.3,324.8,-0.7,1.8,2470.633,13.32,0.029,92.0
2020-12-02T08:52:03,42.805,6.029,0.052,0.001,0.002,103.0,119.0,101.0,13.4,1505.3,323.3,-0.7,1.8,2470.604,13.32,0.052,88.9
2020-12-02T08:55:03,42.805,6.029,0.024,-0.002,-0.025,103.0,120.0,101.0,13.4,1505.3,327.0,-0.7,1.8,2470.635,13.32,0.024,94.8
2020-12-02T08:58:03,42.805,6.029,0.046,0.002,-0.004,103.0,121.0,102.0,13.3,1505.3,325.4,-0.7,1.8,2470.638,13.32,0.046,87.5
2020-12-02T09:04:03,42.805,6.029,0.033,0.017,0.007,103.0,120.0,101.0,13.3,1505.2,326.2,-0.7,1.8,2470.665,13.3,0.037,62.7
2020-12-02T09:07:03,42.805,6.029,0.026,0.005,-0.016,103.0,123.0,100.0,13.3,1505.3,325.4,-0.7,1.8,2470.681,13.31,0.026,79.1
2020-12-02T09:10:03,42.805,6.029,0.033,0.015,-0.012,104.0,122.0,101.0,13.4,1505.3,323.1,-0.7,1.9,2470.622,13.31,0.036,65.6
2020-12-02T09:13:03,42.805,6.029,0.053,0.006,0.002,102.0,118.0,101.0,13.4,1505.3,327.2,-0.7,1.8,2470.699,13.31,0.053,83.5
2020-12-02T09:16:03,42.805,6.029,0.044,0.001,-0.002,104.0,120.0,100.0,13.4,1505.3,326.0,-0.7,1.9,2470.661,13.32,0.044,88.7
2020-12-02T09:19:03,42.805,6.029,0.013,-0.001,-0.008,103.0,119.0,101.0,13.4,1505.3,327.2,-0.7,1.8,2470.64,13.32,0.013,94.4
2020-12-02T09:22:03,42.805,6.029,0.04,-0.003,-0.023,104.0,121.0,101.0,13.4,1505.3,326.4,-0.7,1.9,2470.632,13.32,0.04,94.3
2020-12-02T09:25:03,42.805,6.029,0.056,0.017,0.013,103.0,123.0,101.0,13.3,1505.3,328.2,-0.7,1.8,2470.656,13.32,0.058,73.1
2020-12-02T09:28:03,42.805,6.029,0.016,0.006,-0.02,102.0,122.0,101.0,13.4,1505.3,322.8,-0.7,1.8,2470.687,13.32,0.017,69.4
2020-12-02T09:31:03,42.805,6.029,0.017,0.017,-0.007,103.0,120.0,101.0,13.4,1505.3,325.8,-0.7,1.8,2470.641,13.32,0.024,45.0
2020-12-02T09:34:03,42.805,6.029,0.033,-0.003,-0.018,103.0,120.0,101.0,13.4,1505.3,327.3,-0.7,1.8,2470.567,13.32,0.033,95.2
2020-12-02T09:37:03,42.805,6.029,0.008,0.036,0.009,103.0,121.0,100.0,13.4,1505.3,326.5,-0.7,1.8,2470.664,13.32,0.036,12.5
2020-12-02T09:40:03,42.805,6.029,0.027,-0.012,-0.012,104.0,120.0,100.0,13.4,1505.3,327.0,-0.7,1.9,2470.645,13.32,0.029,114.0
2020-12-02T09:43:03,42.805,6.029,0.034,0.003,-0.017,104.0,123.0,101.0,13.4,1505.3,325.5,-0.7,1.8,2470.6,13.32,0.034,85.0
2020-12-02T09:46:03,42.805,6.029,0.033,0.003,0.002,103.0,121.0,101.0,13.4,1505.3,325.2,-0.7,1.9,2470.625,13.32,0.033,84.8
2020-12-02T09:49:03,42.805,6.029,0.038,0.024,0.014,103.0,123.0,101.0,13.3,1505.3,325.5,-0.7,1.8,2470.651,13.32,0.044,57.7
2020-12-02T09:52:03,42.805,6.029,0.026,-0.009,-0.022,102.0,123.0,101.0,13.4,1505.3,323.1,-0.7,1.8,2470.62,13.32,0.027,109.1
2020-12-02T09:55:03,42.805,6.029,0.03,-0.015,-0.039,103.0,121.0,100.0,13.4,1505.3,326.3,-0.7,1.8,2470.643,13.32,0.033,116.6
2020-12-02T09:58:03,42.805,6.029,0.041,0.001,-0.002,103.0,120.0,101.0,13.4,1505.3,324.5,-0.7,1.8,2470.61,13.32,0.041,88.6
2020-12-02T10:04:03,42.805,6.029,0.044,0.015,0.024,103.0,118.0,100.0,13.4,1505.2,326.7,-0.7,1.8,2470.648,13.3,0.046,71.2
2020-12-02T10:07:03,42.805,6.029,0.012,0.006,-0.002,104.0,120.0,101.0,13.4,1505.3,323.2,-0.7,1.8,2470.618,13.31,0.013,63.4
2020-12-02T10:10:03,42.805,6.029,0.029,0.0,-0.007,104.0,124.0,101.0,13.3,1505.3,326.0,-0.7,1.8,2470.64,13.31,0.028,90.0